Location: Consuma
(43.7833°N, 11.5833°E)
Time: 11:05:12
(UTC+00:00)

Cosmos 1190 Rocket - Pass Details

Date: 17 February 2020
Orbit: 757 x 780 km, 74.1° (Epoch: 08 April)

Event Time Altitude Azimuth Distance (km) Brightness Sun altitude
Rises 05:06:39 0° 207° (SSW) 3,224 7.0 -12.2°
Reaches altitude 10° 05:09:01 10° 210° (SSW) 2,305 6.2 -11.7°
Maximum altitude 05:14:14 66° 293° (WNW) 842 4.0 -10.8°
Drops below altitude 10° 05:19:31 10° 16° (NNE) 2,335 6.6 -9.9°
Sets 05:21:56 0° 19° (NNE) 3,270 7.4 -9.4°
